Stations météo

Publicité
Montauban, France (7540): Température de l'air & dewpoint: 11.12.2017 22:00:00 - 17.12.2017 22:00:00 (CET)Montauban, France (7540): Température de l'air 5cm: 11.12.2017 22:00:00 - 17.12.2017 22:00:00 (CET)Montauban, France (7540): Température de l'air -20cm & Température de l'air -100cm: 11.12.2017 22:00:00 - 17.12.2017 22:00:00 (CET)Montauban, France (7540): Vitesse du vent & gusts: 11.12.2017 22:00:00 - 17.12.2017 22:00:00 (CET)Montauban, France (7540): Direction du vent: 11.12.2017 22:00:00 - 17.12.2017 22:00:00 (CET)Montauban, France (7540): reduced air pressure: 11.12.2017 22:00:00 - 17.12.2017 22:00:00 (CET)Montauban, France (7540): visibility: 11.12.2017 22:00:00 - 17.12.2017 22:00:00 (CET)Montauban, France (7540): Ensoleillement: 11.12.2017 22:00:00 - 17.12.2017 22:00:00 (CET)Montauban, France (7540): Quantités de précipitations: 11.12.2017 22:00:00 - 17.12.2017 22:00:00 (CET)
Date & Time tt [°C] td [°C] tt 5cm [°C] tt -20cm [°C] tt -100cm [°C] ff [km/h] ff [knt] fx [km/h] fx [knt] dd ppp [hPa] vv [km] sd [min] rr [mm]
17.12.2017 22:00:00 6,2 6,2 5,9 7,1 10,8 0 0 7 4 N 1032,9 4,6 0 0,0
17.12.2017 21:00:00 6,2 6,2 5,9 7,1 10,8 0 0 5 3 N 1032,7 4,9 0 0,0
17.12.2017 20:00:00 6,3 6,3 6,0 7,1 10,9 3 2 11 6 WNW 1032,3 7 0 0,4
17.12.2017 19:00:00 6,5 6,5 6,2 7,0 10,8 5 3 14 8 N 1032,0 4,5 0 0,4
17.12.2017 18:00:00 7,0 6,3 6,5 6,9 10,9 7 4 19 11 N 1031,4 15 0 0,0
17.12.2017 17:00:00 7,2 5,8 6,6 6,9 10,8 9 5 18 10 NW 1030,6 20 0 0,0
17.12.2017 16:00:00 6,9 5,7 6,5 6,8 10,9 7 4 19 11 WNW 1030,2 14 0 0,0
17.12.2017 15:00:00 6,8 5,3 6,1 6,8 10,9 11 6 19 10 WNW 1029,7 14 0 0,0
17.12.2017 14:00:00 6,2 4,8 6,1 6,7 10,8 11 6 23 12 WNW 1029,8 19 0 0,0
17.12.2017 13:00:00 6,3 4,0 6,2 6,8 10,9 14 7 24 13 WNW 1030,5 20 0 0,0
17.12.2017 12:00:00 5,5 4,0 5,1 6,8 10,9 8 4 13 7 WNW 1031,0 18 2 0,0
17.12.2017 11:00:00 3,8 3,1 3,6 6,8 10,9 7 4 12 6 WNW 1031,2 16 8 0,0
17.12.2017 10:00:00 2,6 2,3 1,1 6,8 10,9 6 4 12 6 W 1031,0 16 0 0,0
17.12.2017 09:00:00 1,3 1,3 0,6 6,9 10,9 3 1 9 5 WNW 1030,9 15 0 0,0
17.12.2017 08:00:00 1,2 1,2 0,1 7,0 10,9 5 3 11 6 W 1030,6 17 0 0,0
17.12.2017 07:00:00 0,9 0,9 -1,4 7,0 10,9 7 4 11 6 W 1030,3 18 0 0,0
17.12.2017 06:00:00 0,8 0,8 -1,1 7,1 10,9 4 2 7 4 WNW 1030,0 15 0 0,0
17.12.2017 05:00:00 0,8 0,7 -0,8 7,2 10,9 4 2 11 6 W 1029,3 15 0 0,0
17.12.2017 04:00:00 1,4 1,3 0,1 7,2 10,9 6 4 10 5 WNW 1029,3 16 0 0,0
17.12.2017 03:00:00 2,2 1,9 1,4 7,3 10,9 5 3 14 7 WNW 1029,2 14 0 0,0
17.12.2017 02:00:00 2,1 1,8 0,2 7,4 10,9 10 5 16 8 WNW 1028,8 17 0 0,0
17.12.2017 01:00:00 1,7 1,6 0,1 7,5 10,9 9 5 16 9 W 1028,7 14 0 0,0
17.12.2017 00:00:00 1,4 1,4 -1,4 7,6 10,9 8 4 13 7 W 1028,5 11 0 0,0
16.12.2017 23:00:00 1,3 1,3 -3,2 7,6 10,9 6 4 11 6 WNW 1028,1 9 0 0,0
16.12.2017 22:00:00 -0,3 -0,3 -3,3 7,7 10,9 3 2 7 4 W 1027,5 5 0 0,0
16.12.2017 21:00:00 0,4 0,1 -2,4 7,7 10,9 0 0 6 4 N 1027,3 6 0 0,0
16.12.2017 20:00:00 2,6 2,0 -0,6 7,7 10,9 4 2 11 6 WNW 1026,4 13 0 0,0
16.12.2017 19:00:00 2,9 2,5 -0,3 7,7 10,9 6 3 11 6 W 1025,3 14 0 0,0
16.12.2017 18:00:00 4,6 3,1 3,1 7,7 10,9 6 3 25 13 NNW 1024,4 20 0 0,0
16.12.2017 17:00:00 5,5 3,5 4,7 7,7 10,9 10 5 22 12 NW 1023,4 20 0 0,0
16.12.2017 16:00:00 6,1 3,8 6,1 7,7 10,9 11 6 19 10 NW 1022,6 20 0 0,0
16.12.2017 15:00:00 6,1 3,4 6,4 7,7 10,9 11 6 18 10 WNW 1022,0 20 0 0,0
16.12.2017 14:00:00 5,8 3,0 6,4 7,6 10,9 6 3 21 11 NW 1021,8 20 0 0,0
16.12.2017 13:00:00 5,8 3,3 6,6 7,7 10,9 10 5 17 9 NW 1021,7 20 0 0,0
16.12.2017 12:00:00 5,7 3,0 7,1 7,7 10,9 11 6 22 12 NW 1021,4 20 49 0,0
16.12.2017 11:00:00 4,2 2,4 5,6 7,8 10,9 16 8 23 12 NW 1021,0 20 60 0,0
16.12.2017 10:00:00 3,0 2,0 0,9 7,9 10,9 9 5 16 9 WNW 1020,2 20 60 0,0
16.12.2017 09:00:00 1,5 1,2 -0,3 8,0 10,9 7 4 14 8 WNW 1019,3 20 11 0,0
16.12.2017 08:00:00 1,5 1,4 0,0 8,1 10,9 8 4 15 8 W 1018,1 20 0 0,0
16.12.2017 07:00:00 1,8 1,8 -0,2 8,2 10,9 11 6 17 9 WNW 1017,2 20 0 0,0
16.12.2017 06:00:00 1,4 1,4 -0,8 8,3 10,9 7 4 10 5 WNW 1016,4 13 0 0,0
16.12.2017 05:00:00 2,2 2,2 0,4 8,4 10,9 8 4 13 7 WNW 1015,8 17 0 0,0
16.12.2017 04:00:00 2,5 2,5 0,8 8,4 10,9 8 4 12 6 WNW 1015,3 18 0 0,0
16.12.2017 03:00:00 3,5 3,2 1,9 8,5 10,9 8 5 14 8 WNW 1014,6 20 0 0,0
16.12.2017 02:00:00 4,6 4,0 3,6 8,5 10,9 9 5 18 10 WNW 1013,7 20 0 0,0
16.12.2017 01:00:00 5,0 4,3 3,9 8,6 10,9 10 5 19 10 WNW 1013,3 20 0 0,0
16.12.2017 00:00:00 5,2 4,3 4,3 8,6 10,9 12 7 23 12 WNW 1012,5 20 0 0,0
15.12.2017 23:00:00 5,5 4,5 4,5 8,7 10,9 12 7 21 12 WNW 1011,5 20 0 0,0
15.12.2017 22:00:00 5,9 4,4 4,9 8,7 10,9 12 6 19 11 WNW 1010,8 20 0 0,0
15.12.2017 21:00:00 6,4 4,7 4,8 8,8 10,9 13 7 21 11 W 1010,1 20 0 0,0
15.12.2017 20:00:00 6,1 4,4 4,9 8,7 10,8 11 6 18 10 W 1009,5 20 0 0,0
15.12.2017 19:00:00 6,0 4,5 4,9 8,8 10,9 8 4 22 12 WSW 1008,7 20 0 0,0
15.12.2017 18:00:00 6,4 4,1 5,4 8,8 10,9 18 10 34 18 WNW 1007,9 20 0 0,0
15.12.2017 17:00:00 7,0 5,8 5,6 8,7 10,9 18 10 39 21 W 1007,1 20 0 4,2
15.12.2017 16:00:00 8,2 6,0 6,7 8,7 10,9 18 10 34 19 W 1006,4 20 10 0,0
15.12.2017 15:00:00 7,9 5,7 6,8 8,6 10,8 24 13 47 26 W 1006,9 20 25 0,2
15.12.2017 14:00:00 8,3 6,4 7,0 8,6 10,9 16 9 37 20 W 1006,9 18 16 0,6
15.12.2017 13:00:00 9,0 5,6 8,6 8,6 10,8 20 11 35 19 W 1008,1 20 21 0,0
15.12.2017 12:00:00 8,2 5,5 7,9 8,7 10,9 21 11 33 18 W 1008,8 20 29 0,0
15.12.2017 11:00:00 7,5 6,3 6,6 8,7 10,9 12 7 23 13 W 1009,4 20 6 0,0
15.12.2017 10:00:00 6,0 5,6 4,7 8,7 10,8 8 4 21 12 SSW 1009,3 20 0 0,0
15.12.2017 09:00:00 5,8 5,2 4,7 8,7 10,8 9 5 16 9 W 1008,9 20 0 0,4
15.12.2017 08:00:00 5,7 4,8 4,6 8,7 10,9 6 3 11 6 SW 1008,3 20 0 0,0
15.12.2017 07:00:00 5,9 5,3 5,1 8,8 10,9 6 3 14 8 SW 1007,5 20 0 0,0
15.12.2017 06:00:00 6,3 5,3 5,2 8,8 10,8 8 4 24 13 WSW 1007,6 20 0 0,2
15.12.2017 05:00:00 6,6 5,2 5,7 8,8 10,9 13 7 44 24 NW 1007,9 17 0 1,7
15.12.2017 04:00:00 7,6 6,5 6,7 8,7 10,8 16 9 40 22 NNW 1007,0 11 0 1,4
15.12.2017 03:00:00 9,4 8,5 8,4 8,8 10,8 18 10 37 20 W 1006,7 10 0 3,6
15.12.2017 02:00:00 10,0 8,1 8,9 8,8 10,8 11 6 34 18 W 1007,1 19 0 0,0
15.12.2017 01:00:00 10,4 8,2 8,7 8,8 10,9 16 9 28 15 W 1007,7 13 0 0,0
15.12.2017 00:00:00 9,9 7,5 8,7 8,8 10,8 13 7 25 13 WSW 1008,0 19 0 0,0
14.12.2017 23:00:00 10,6 7,8 9,5 8,8 10,9 14 8 27 15 W 1008,4 20 0 0,0
14.12.2017 22:00:00 10,8 7,8 9,0 8,7 10,9 15 8 35 19 W 1008,6 20 0 0,0
14.12.2017 21:00:00 10,0 8,4 8,7 8,7 10,9 13 7 34 18 WSW 1009,2 20 0 0,0
14.12.2017 20:00:00 10,4 8,2 9,3 8,7 10,9 17 9 29 16 WSW 1009,5 20 0 0,0
14.12.2017 19:00:00 10,9 8,3 9,4 8,6 10,9 19 10 33 18 W 1009,7 19 0 0,0
14.12.2017 18:00:00 11,5 8,2 10,8 8,5 10,9 18 10 34 19 W 1010,0 20 0 0,0
14.12.2017 17:00:00 11,6 9,7 10,8 8,4 10,9 18 10 34 18 W 1010,5 20 2 0,0
14.12.2017 16:00:00 11,8 10,2 11,0 8,3 10,8 18 10 34 18 W 1010,9 20 0 0,0
14.12.2017 15:00:00 12,1 10,7 10,9 8,2 10,9 14 8 34 18 W 1011,3 18 4 0,2
14.12.2017 14:00:00 12,2 10,3 10,6 8,2 10,9 16 9 41 22 W 1012,1 20 4 0,4
14.12.2017 13:00:00 11,8 10,0 10,9 8,1 10,9 14 8 28 15 W 1012,9 8 0 0,0
14.12.2017 12:00:00 12,1 9,8 12,4 8,0 10,9 18 10 29 16 W 1014,2 20 28 0,0
14.12.2017 11:00:00 11,7 10,3 10,5 8,0 10,9 9 5 24 13 SW 1015,0 20 7 0,0
14.12.2017 10:00:00 10,7 10,1 9,7 7,9 10,9 10 5 20 11 WSW 1015,4 20 0 0,0
14.12.2017 09:00:00 10,4 9,9 9,2 7,9 10,9 8 4 15 8 SW 1015,6 20 0 0,0
14.12.2017 08:00:00 10,4 10,1 9,6 7,8 10,9 6 4 21 12 W 1015,8 15 0 0,8
14.12.2017 07:00:00 10,4 10,1 9,7 7,8 10,9 7 4 28 15 WSW 1015,4 20 0 0,0
14.12.2017 06:00:00 10,9 9,7 10,3 7,7 10,9 10 5 16 9 W 1015,0 20 0 0,0
14.12.2017 05:00:00 10,8 9,9 10,2 7,7 10,9 9 5 19 10 W 1015,3 20 0 0,0
14.12.2017 04:00:00 11,0 10,1 10,2 7,6 10,9 11 6 17 9 WSW 1015,4 20 0 0,0
14.12.2017 03:00:00 10,7 9,6 9,7 7,5 10,9 11 6 22 12 W 1015,7 20 0 0,0
14.12.2017 02:00:00 10,9 9,7 10,2 7,5 10,9 12 6 23 13 W 1015,5 20 0 0,0
14.12.2017 01:00:00 11,1 10,3 10,2 7,5 11,0 16 9 42 23 W 1015,9 20 0 0,0
14.12.2017 00:00:00 11,6 9,8 10,2 7,4 11,0 18 10 36 19 W 1015,6 20 0 0,0
13.12.2017 23:00:00 11,0 9,4 9,0 7,4 11,0 14 8 24 13 W 1015,5 20 0 0,0
13.12.2017 22:00:00 10,1 8,4 8,5 7,3 11,0 9 5 20 11 WSW 1015,6 19 0 0,0
13.12.2017 21:00:00 9,5 7,8 7,9 7,3 11,0 9 5 18 10 SW 1015,6 20 0 0,0
13.12.2017 20:00:00 8,5 8,1 7,0 7,2 10,9 8 5 15 8 SSW 1015,7 12 0 0,2
13.12.2017 19:00:00 7,7 7,1 6,4 7,2 11,0 10 5 19 10 SSW 1016,2 7 0 0,6
13.12.2017 18:00:00 7,4 5,0 6,2 7,1 11,0 8 4 14 7 S 1016,3 20 0 0,0
13.12.2017 17:00:00 7,2 4,8 6,1 7,1 11,0 6 4 11 6 S 1016,4 20 0 0,0
13.12.2017 16:00:00 7,5 4,1 7,0 7,0 10,9 3 2 11 6 S 1017,3 20 0 0,0
13.12.2017 15:00:00 7,0 3,2 6,9 7,0 11,0 3 2 16 9 S 1017,8 20 0 0,0
13.12.2017 14:00:00 6,1 2,9 4,6 7,0 11,0 10 5 16 9 S 1018,6 20 0 0,0
13.12.2017 13:00:00 5,1 1,8 4,5 7,0 11,0 7 4 14 8 S 1019,7 20 0 0,0
13.12.2017 12:00:00 4,6 0,9 4,6 7,0 11,0 7 4 19 10 S 1020,8 20 0 0,0
13.12.2017 11:00:00 3,9 0,2 3,1 7,1 11,0 7 4 18 10 S 1021,4 20 8 0,0
13.12.2017 10:00:00 2,8 0,4 1,2 7,2 11,0 8 5 18 10 S 1021,4 20 0 0,0
13.12.2017 09:00:00 2,0 0,1 -0,2 7,3 11,0 7 4 12 7 SSE 1022,0 20 0 0,0
13.12.2017 08:00:00 1,1 -0,1 -1,3 7,4 11,0 0 0 14 7 N 1022,1 20 0 0,0
13.12.2017 07:00:00 0,8 -0,1 -3,0 7,4 11,0 0 0 10 5 N 1022,1 20 0 0,0
13.12.2017 06:00:00 -0,6 -1,2 -3,3 7,5 11,0 0 0 6 3 N 1022,3 8 0 0,0
13.12.2017 05:00:00 0,7 -0,2 -2,3 7,6 11,0 3 1 8 5 SE 1022,8 17 0 0,0
13.12.2017 04:00:00 1,6 1,0 -1,0 7,7 11,0 5 3 10 6 SSE 1022,8 17 0 0,0
13.12.2017 03:00:00 1,7 1,4 -0,7 7,8 11,0 3 2 7 4 ESE 1022,7 16 0 0,0
13.12.2017 02:00:00 1,2 1,2 -0,6 7,9 11,0 3 2 6 3 ESE 1023,1 9 0 0,0
13.12.2017 01:00:00 1,0 1,0 -1,6 7,9 11,0 3 2 7 4 NNE 1023,2 10 0 0,0
13.12.2017 00:00:00 0,8 0,8 -1,7 8,0 11,0 0 0 8 4 N 1023,4 9 0 0,0
12.12.2017 23:00:00 0,7 0,7 -2,6 8,1 11,0 0 0 3 2 N 1023,2 8 0 0,0
12.12.2017 22:00:00 0,1 0,1 -3,1 8,2 11,0 0 0 6 3 N 1022,8 8 0 0,0
12.12.2017 21:00:00 1,3 1,3 -2,4 8,3 11,0 3 1 10 5 E 1021,8 11 0 0,0
12.12.2017 20:00:00 1,0 1,0 -1,8 8,3 11,0 3 2 6 3 SE 1021,7 10 0 0,0
12.12.2017 19:00:00 1,9 1,6 -1,2 8,4 11,0 3 2 6 4 SSE 1021,5 13 0 0,0
12.12.2017 18:00:00 3,2 1,7 -0,7 8,4 11,0 0 0 5 3 N 1020,6 18 0 0,0
12.12.2017 17:00:00 6,7 2,8 5,3 8,3 11,0 3 2 9 5 N 1019,6 20 35 0,0
12.12.2017 16:00:00 6,6 2,3 6,0 8,3 10,9 4 2 15 8 NW 1018,6 20 16 0,0
12.12.2017 15:00:00 7,0 4,1 7,1 8,2 10,9 9 5 16 8 NW 1018,3 20 21 0,0
12.12.2017 14:00:00 6,7 3,7 6,8 8,2 10,9 10 5 23 13 NNW 1018,0 20 14 0,0
12.12.2017 13:00:00 5,7 4,0 6,7 8,3 10,9 16 9 24 13 WNW 1017,9 20 0 0,0
12.12.2017 12:00:00 5,4 4,4 5,6 8,3 10,9 14 7 23 13 WNW 1017,9 17 1 0,0
12.12.2017 11:00:00 4,7 4,1 4,6 8,3 10,9 8 4 18 10 NW 1016,8 18 0 0,0
12.12.2017 10:00:00 4,3 3,9 3,4 8,4 10,9 10 5 17 9 NW 1015,6 17 4 0,0
12.12.2017 09:00:00 3,8 3,7 2,3 8,4 10,9 9 5 16 9 WNW 1014,4 19 3 0,0
12.12.2017 08:00:00 4,2 3,8 2,6 8,4 10,9 6 4 18 10 NW 1012,8 20 0 0,0
12.12.2017 07:00:00 5,5 5,2 5,1 8,4 10,9 10 5 22 12 WNW 1011,3 20 0 0,0
12.12.2017 06:00:00 5,6 5,2 4,9 8,5 10,9 10 5 17 9 W 1009,3 20 0 0,2
12.12.2017 05:00:00 5,8 5,4 5,3 8,5 10,9 11 6 24 13 WNW 1008,0 20 0 0,0
12.12.2017 04:00:00 6,1 5,1 5,2 8,5 10,9 14 7 24 13 W 1006,7 14 0 0,2
12.12.2017 03:00:00 6,5 4,5 5,7 8,6 10,9 12 6 27 15 WSW 1005,6 20 0 0,0
12.12.2017 02:00:00 6,6 4,9 5,6 8,6 10,9 14 7 26 14 WSW 1004,7 20 0 0,0
12.12.2017 01:00:00 6,8 5,3 6,1 8,6 10,9 13 7 22 12 WSW 1004,0 17 0 0,0
12.12.2017 00:00:00 6,9 5,0 5,8 8,7 10,9 10 5 22 12 SW 1002,8 20 0 0,0
11.12.2017 23:00:00 7,0 5,3 6,0 8,7 10,9 14 8 28 15 W 1001,1 20 0 0,0
11.12.2017 22:00:00 7,1 5,1 5,6 8,7 10,9 13 7 32 17 W 999,8 20 0 0,0

tt = Température de l'air
td = dewpoint
tt 5cm = Température de l'air 5cm
tt -20cm = Température de l'air -20cm
tt -100cm = Température de l'air -100cm
ff = Vitesse du vent
fx = gusts
dd = Direction du vent
ppp = reduced air pressure
vv = visibility
sd = Ensoleillement
rr = Quantités de précipitations

stations d'obs. à proximité